TimePDT,TemperatureF,Dew PointF,Humidity,Sea Level PressureIn,VisibilityMPH,Wind Direction,Wind SpeedMPH,Gust SpeedMPH,PrecipitationIn,Events,Conditions,WindDirDegrees,DateUTC
12:56 AM,59.9,46.9,62,29.97,10.0,SE,4.6,-,N/A,,Clear,130,2012-10-04 07:56:00
1:56 AM,56.8,47.8,72,29.99,10.0,Calm,Calm,-,N/A,,Clear,0,2012-10-04 08:56:00
2:56 AM,54.0,48.9,83,30.00,8.0,Calm,Calm,-,N/A,,Clear,0,2012-10-04 09:56:00
3:56 AM,54.0,50.0,86,30.00,7.0,Calm,Calm,-,N/A,,Clear,0,2012-10-04 10:56:00
4:56 AM,52.0,52.0,100,30.01,6.0,Calm,Calm,-,N/A,,Clear,0,2012-10-04 11:56:00
5:23 AM,51.8,51.8,100,30.02,3.0,SSW,3.5,-,N/A,,Scattered Clouds,200,2012-10-04 12:23:00
5:31 AM,51.8,51.8,100,30.02,2.5,Calm,Calm,-,N/A,,Mostly Cloudy,0,2012-10-04 12:31:00
5:39 AM,51.8,51.8,100,30.02,1.2,Calm,Calm,-,N/A,,Mostly Cloudy,0,2012-10-04 12:39:00
5:43 AM,51.8,51.8,100,30.02,0.8,SSE,3.5,-,N/A,,Overcast,150,2012-10-04 12:43:00
5:48 AM,51.8,51.8,100,30.02,0.2,Calm,Calm,-,N/A,Fog,Fog,0,2012-10-04 12:48:00
5:56 AM,50.9,50.9,100,30.02,0.2,SSE,4.6,-,0.00,Fog-Rain,Light Rain,150,2012-10-04 12:56:00
6:56 AM,50.9,50.9,100,30.04,0.2,Calm,Calm,-,0.00,Fog,Fog,0,2012-10-04 13:56:00
7:18 AM,51.8,51.8,100,30.05,0.2,Calm,Calm,-,N/A,Fog,Fog,0,2012-10-04 14:18:00
7:41 AM,51.8,-9999,N/A,30.05,0.2,Calm,Calm,-,N/A,Fog,Fog,0,2012-10-04 14:41:00
7:56 AM,50.9,-9999,N/A,30.06,0.2,Calm,Calm,-,N/A,Fog,Fog,0,2012-10-04 14:56:00
9:07 AM,51.8,-9999,N/A,30.09,0.8,Calm,Calm,-,N/A,,Overcast,0,2012-10-04 16:07:00
9:15 AM,51.8,-9999,N/A,30.09,1.0,Calm,Calm,-,N/A,,Overcast,0,2012-10-04 16:15:00
9:28 AM,51.8,-9999,N/A,30.09,1.2,Calm,Calm,-,N/A,,Overcast,0,2012-10-04 16:28:00
9:38 AM,51.8,-9999,N/A,30.09,1.0,Calm,Calm,-,N/A,,Overcast,0,2012-10-04 16:38:00
9:56 AM,50.9,-9999,N/A,30.11,1.2,Calm,Calm,-,N/A,,Overcast,0,2012-10-04 16:56:00
10:02 AM,51.8,-9999,N/A,30.10,0.8,Calm,Calm,-,N/A,,Overcast,0,2012-10-04 17:02:00
10:13 AM,51.8,-9999,N/A,30.11,1.2,Calm,Calm,-,N/A,,Overcast,0,2012-10-04 17:13:00
10:17 AM,51.8,-9999,N/A,30.11,2.0,Calm,Calm,-,N/A,,Overcast,0,2012-10-04 17:17:00
10:24 AM,51.8,-9999,N/A,30.11,1.8,Calm,Calm,-,N/A,,Overcast,0,2012-10-04 17:24:00
10:56 AM,52.9,-9999,N/A,30.13,2.0,Calm,Calm,-,N/A,,Overcast,0,2012-10-04 17:56:00
11:29 AM,53.6,-9999,N/A,30.13,4.0,Calm,Calm,-,N/A,,Haze,0,2012-10-04 18:29:00
11:56 AM,55.9,55.9,100,30.13,10.0,SW,3.5,-,N/A,,Mostly Cloudy,230,2012-10-04 18:56:00
12:09 PM,55.4,55.4,100,30.13,10.0,West,4.6,-,N/A,,Mostly Cloudy,260,2012-10-04 19:09:00
12:56 PM,55.9,54.9,96,30.14,10.0,Variable,4.6,-,N/A,,Mostly Cloudy,0,2012-10-04 19:56:00
1:31 PM,57.2,53.6,88,30.14,10.0,WSW,4.6,-,N/A,,Scattered Clouds,250,2012-10-04 20:31:00
1:40 PM,57.2,53.6,88,30.13,10.0,WNW,5.8,-,N/A,,Mostly Cloudy,290,2012-10-04 20:40:00
1:56 PM,56.8,54.0,90,30.14,10.0,Variable,3.5,-,N/A,,Mostly Cloudy,0,2012-10-04 20:56:00
2:07 PM,57.2,53.6,88,30.13,10.0,Variable,5.8,-,N/A,,Scattered Clouds,0,2012-10-04 21:07:00
2:19 PM,55.4,53.6,94,30.13,10.0,WNW,4.6,-,N/A,,Mostly Cloudy,300,2012-10-04 21:19:00
2:27 PM,55.4,55.4,100,30.13,10.0,WNW,5.8,-,N/A,,Scattered Clouds,300,2012-10-04 21:27:00
2:34 PM,55.4,55.4,100,30.13,10.0,WNW,5.8,-,N/A,,Mostly Cloudy,290,2012-10-04 21:34:00
2:42 PM,55.4,55.4,100,30.13,10.0,WNW,4.6,-,N/A,,Scattered Clouds,290,2012-10-04 21:42:00
3:56 PM,55.9,54.9,96,30.13,7.0,WNW,5.8,-,N/A,,Scattered Clouds,300,2012-10-04 22:56:00
4:56 PM,54.9,54.9,100,30.13,6.0,NW,4.6,-,N/A,,Scattered Clouds,320,2012-10-04 23:56:00
5:20 PM,55.4,53.6,94,30.12,7.0,NW,4.6,-,N/A,,Mostly Cloudy,320,2012-10-05 00:20:00
5:56 PM,54.0,54.0,100,30.13,6.0,NW,4.6,-,N/A,,Mostly Cloudy,310,2012-10-05 00:56:00
6:14 PM,53.6,53.6,100,30.13,6.0,NW,4.6,-,N/A,,Mostly Cloudy,310,2012-10-05 01:14:00
8:36 PM,51.8,51.8,100,30.14,1.8,Calm,Calm,-,N/A,,Mostly Cloudy,0,2012-10-05 03:36:00
8:47 PM,51.8,51.8,100,30.14,3.0,Calm,Calm,-,N/A,,Mostly Cloudy,0,2012-10-05 03:47:00
8:56 PM,52.0,52.0,100,30.14,2.0,Calm,Calm,-,N/A,,Mostly Cloudy,0,2012-10-05 03:56:00
9:03 PM,51.8,51.8,100,30.14,1.2,Calm,Calm,-,N/A,,Mostly Cloudy,0,2012-10-05 04:03:00
9:12 PM,51.8,51.8,100,30.14,1.5,Calm,Calm,-,N/A,,Mostly Cloudy,0,2012-10-05 04:12:00
9:29 PM,51.8,51.8,100,30.14,2.5,Calm,Calm,-,N/A,,Mostly Cloudy,0,2012-10-05 04:29:00
9:35 PM,51.8,51.8,100,30.14,5.0,Calm,Calm,-,N/A,,Scattered Clouds,0,2012-10-05 04:35:00
9:56 PM,52.0,52.0,100,30.15,9.0,Calm,Calm,-,N/A,,Partly Cloudy,0,2012-10-05 04:56:00
10:47 PM,53.6,53.6,100,30.14,7.0,Calm,Calm,-,N/A,,Mostly Cloudy,0,2012-10-05 05:47:00
11:45 PM,53.6,53.6,100,30.15,4.0,Calm,Calm,-,N/A,,Overcast,0,2012-10-05 06:45:00
11:56 PM,52.0,52.0,100,30.15,2.5,Calm,Calm,-,N/A,,Mostly Cloudy,0,2012-10-05 06:56:00